Theta_e
339 337 337 337 338 337 335 336 339 341 342 342 342 342 341 341 343 343 344 345 348 349 354 356 357 361 355 360 356 353 356 355 348 347 349 354 365 360 356 356 355 357 355
338 336 336 337 336 334 336 338 340 339 340 340 340 340 340 341 342 342 340 341 342 345 348 353 354 355 358 358 357 355 356 348 353 349 351 350 358 363 362 360 355 352 355
336 333 335 335 334 337 338 340 340 341 341 341 340 338 339 338 341 343 343 342 342 344 347 349 351 355 355 353 353 353 353 354 353 348 347 350 351 354 358 360 360 361 355
335 333 333 331 331 330 333 337 339 340 339 338 338 336 337 336 336 339 340 340 340 342 347 348 350 352 354 355 353 354 354 350 347 345 344 346 345 350 353 348 349 353 351
333 332 331 330 330 332 335 338 339 339 338 337 335 332 332 330 325 325 327 328 334 338 343 346 348 348 344 349 351 352 351 347 345 340 338 340 339 342 348 348 347 347 353
331 331 331 330 330 335 337 338 339 338 338 336 332 330 328 324 320 323 328 326 328 335 339 341 346 343 342 333 336 336 347 348 346 337 335 337 343 342 350 346 348 343 340
332 331 330 330 330 335 337 338 337 336 338 335 330 330 329 322 318 319 320 326 327 331 336 342 344 345 342 347 333 330 331 328 333 345 342 342 345 347 347 346 353 353 346
330 329 328 330 331 335 337 337 337 339 336 332 328 330 329 321 317 316 317 318 330 331 335 340 344 345 347 347 346 341 342 343 342 339 341 346 349 352 350 355 357 358 360
329 329 329 330 334 335 335 335 335 335 334 330 329 330 322 318 315 314 314 315 326 331 339 342 343 343 333 326 344 343 344 344 332 327 329 329 330 328 335 350 348 345 346
330 329 331 334 334 333 335 334 331 335 333 327 328 326 318 317 315 312 311 313 324 331 340 342 328 336 323 320 343 344 341 344 344 344 344 337 332 338 326 337 342 343 346
332 331 333 335 335 334 336 335 335 334 331 330 328 324 318 320 320 311 308 317 327 334 335 336 340 319 314 312 318 341 336 341 340 343 342 342 346 345 342 340 345 352 349
332 332 332 334 333 330 335 335 335 332 330 331 330 326 320 321 318 313 310 312 317 330 333 334 334 314 311 311 314 317 315 318 346 345 339 338 338 340 347 349 344 350 356
333 335 332 333 334 334 334 333 328 330 325 325 320 327 318 320 322 311 310 315 318 324 324 317 314 310 310 315 312 312 313 331 336 339 340 336 337 340 341 344 349 354 355
333 334 332 333 332 333 330 329 328 324 323 322 320 320 320 319 319 310 312 321 321 325 325 324 319 318 316 319 322 321 322 325 327 327 330 334 336 338 339 341 340 346 346
333 331 327 325 328 328 329 327 328 326 317 321 320 316 318 318 314 303 302 308 315 315 322 326 324 321 317 318 320 323 322 321 322 324 324 324 324 325 325 328 329 334 333
330 326 324 324 324 324 323 326 307 306 301 299 297 301 311 304 297 301 302 301 302 302 326 323 324 324 322 321 322 322 323 320 321 322 321 321 319 319 320 323 325 323 321
332 326 325 323 324 324 324 323 323 313 302 299 297 298 297 296 299 298 301 303 305 315 325 325 325 324 324 324 324 324 319 320 322 324 322 322 322 320 319 320 322 321 320
330 316 326 324 325 327 322 322 323 325 322 321 304 306 300 298 298 299 300 310 318 321 324 326 327 328 327 326 325 325 325 326 326 327 324 325 324 326 323 324 323 320 319
327 326 326 328 327 324 326 324 326 324 322 318 317 314 310 302 301 301 303 314 313 313 316 320 323 325 324 326 328 328 328 326 328 325 325 326 328 323 322 322 320 312 316
329 321 318 326 323 323 326 327 324 322 322 320 318 318 320 315 314 313 313 312 311 310 310 311 316 318 316 319 322 322 321 320 320 318 318 319 323 328 326 326 325 322 321
325 325 321 323 325 325 327 325 324 322 319 317 314 311 297 314 313 311 311 310 310 309 310 311 311 313 316 316 313 310 312 313 313 314 312 309 313 316 319 320 321 324 325
323 324 323 323 324 324 324 324 322 320 319 319 318 313 302 314 312 311 310 310 311 312 312 311 311 311 311 311 310 312 312 311 310 307 307 307 310 307 307 307 309 314 317
316 316 316 319 322 317 322 322 321 322 320 318 316 313 311 309 309 309 308 310 310 310 311 312 312 311 312 312 311 309 307 307 309 310 310 310 310 310 310 311 310 308 307
312 313 317 319 319 318 317 316 313 306 312 311 310 309 308 308 307 307 308 308 308 308 309 309 309 309 311 311 312 310 304 302 307 306 307 308 308 308 309 308 308 308 308
311 314 315 315 314 313 313 312 311 310 309 308 307 307 307 307 307 306 307 307 306 307 306 307 307 307 307 309 307 303 288 283 294 288 304 305 306 307 306 306 306 305 306
311 311 311 311 310 309 308 308 308 308 307 307 306 306 306 306 306 306 306 305 305 305 305 305 306 306 306 305 298 287 284 284 289 284 295 302 303 303 303 303 302 302 302
Wind_Speed
0 4 5 6 8 9 9 11 12 12 13 13 14 14 14 16 16 15 17 19 19 19 18 19 19 17 14 12 12 12 14 13 14 14 14 13 11 11 12 12 12 12 11
2 3 5 6 8 9 10 12 12 12 13 13 14 15 16 17 17 18 19 19 20 20 20 20 21 15 18 16 13 16 14 13 12 18 14 13 14 14 13 14 13 13 12
1 4 6 7 8 10 12 13 13 13 14 14 15 15 16 18 20 20 21 20 21 21 21 21 22 21 19 15 16 14 14 13 12 14 15 12 13 11 13 12 13 13 11
2 5 6 8 9 11 12 13 13 13 14 13 15 16 18 19 22 23 23 23 23 22 21 22 21 22 21 19 17 17 15 14 12 13 11 12 12 9 12 13 13 13 12
4 5 5 8 10 12 13 13 13 12 12 13 15 17 19 19 15 21 22 23 23 23 23 21 22 23 26 21 15 15 13 11 12 13 12 12 12 12 11 8 11 12 13
5 5 6 9 11 12 12 13 13 13 13 13 16 19 20 17 25 30 25 17 19 22 20 19 20 21 23 16 18 16 12 16 15 12 11 13 14 9 10 8 9 13 13
4 6 8 9 11 12 12 12 13 13 12 14 16 19 21 20 26 28 26 16 15 17 19 15 16 15 19 20 13 9 13 10 12 12 15 15 14 15 13 12 12 12 12
5 6 8 9 11 11 11 12 13 12 11 13 16 19 20 17 28 28 20 16 14 16 18 18 14 17 16 17 14 14 18 20 21 16 18 16 14 11 13 14 13 12 10
5 7 8 9 11 10 11 11 11 12 12 13 15 18 19 21 27 25 18 13 12 16 16 16 16 15 12 12 13 15 16 16 14 16 17 12 12 11 11 6 11 9 9
5 7 7 8 9 10 9 9 8 10 12 13 14 14 20 21 22 15 18 10 9 9 14 12 10 15 11 15 16 14 13 15 14 13 13 11 10 12 10 10 12 9 9
6 7 8 7 7 7 7 6 8 8 11 13 12 12 17 20 21 18 20 8 6 4 5 6 5 9 7 11 11 11 12 9 10 11 11 10 11 13 9 9 11 11 9
6 7 8 7 6 5 7 8 9 8 10 10 11 10 12 17 23 28 24 18 10 3 2 3 2 10 9 7 6 9 6 7 8 7 9 9 7 7 9 10 12 14 12
7 7 7 7 7 8 9 8 7 7 8 10 12 10 10 13 13 27 28 26 19 7 7 10 13 13 10 7 2 2 3 6 7 7 8 7 5 4 7 8 9 13 14
7 7 6 6 8 8 7 5 6 7 7 8 11 10 7 9 12 12 12 14 25 15 11 13 16 18 19 13 8 8 8 6 2 5 6 5 6 7 7 6 8 7 8
7 6 7 9 6 6 4 6 5 7 5 7 8 8 9 9 9 14 8 7 7 8 8 4 8 10 9 9 8 9 9 11 11 8 7 6 7 7 8 7 6 2 4
6 7 5 5 6 4 5 2 10 9 6 2 7 6 7 4 12 15 19 20 15 10 2 4 7 11 11 11 11 11 9 11 7 6 6 6 7 6 7 7 7 8 8
7 7 6 6 6 3 3 5 1 3 2 1 8 8 8 7 15 13 14 16 17 15 11 11 12 12 11 11 10 10 7 8 7 3 4 3 4 5 5 6 6 5 7
8 6 7 7 5 2 3 5 4 2 4 4 5 6 8 9 9 13 14 14 13 13 13 12 12 11 10 11 10 10 8 6 7 6 6 4 4 4 4 4 5 4 4
8 7 5 2 2 1 2 4 1 4 6 4 2 4 8 7 7 13 13 11 9 10 11 11 12 11 12 12 9 9 10 10 9 6 7 6 4 5 5 5 4 4 4
7 3 3 4 1 5 3 1 5 5 4 5 6 8 8 6 9 10 10 9 10 10 10 10 11 9 11 12 10 10 10 11 10 10 10 9 8 8 9 7 5 2 3
5 7 2 5 2 2 2 4 5 4 5 5 6 7 10 7 8 9 9 9 9 9 10 10 9 9 9 9 8 10 12 12 11 10 9 10 12 10 10 9 9 8 8
6 4 2 2 4 4 5 5 5 4 4 4 4 6 7 7 7 7 8 8 8 8 7 8 8 9 9 9 10 10 9 8 7 7 6 7 8 4 6 8 10 10 8
7 6 5 1 5 6 6 5 4 3 4 4 5 5 6 6 7 8 8 8 8 9 8 7 7 8 9 8 8 9 11 10 10 10 10 9 9 8 9 8 6 5 6
1 8 4 5 5 6 6 6 6 6 5 5 5 5 5 6 6 7 7 7 7 7 7 7 8 11 10 9 8 11 11 10 10 11 15 11 10 10 10 9 9 10 9
4 3 6 5 6 5 5 5 4 4 4 5 5 6 6 6 7 7 7 8 8 8 9 8 8 11 11 13 15 14 11 11 10 13 11 13 11 12 10 10 10 11 12
7 6 5 5 5 5 4 4 4 4 5 5 5 5 5 6 7 7 8 9 9 8 10 8 10 13 13 13 14 12 8 9 10 11 12 11 11 10 10 11 14 11 13
Wind_Direction
229 6 338 322 306 300 299 295 294 296 296 296 299 300 297 296 293 284 279 281 274 267 258 253 245 239 236 232 232 229 229 223 244 243 248 250 235 227 234 232 233 237 237
46 340 315 298 304 303 299 299 300 292 289 287 290 293 296 292 288 281 277 273 271 268 258 251 247 240 236 233 230 234 233 233 240 248 250 247 230 230 221 233 243 237 236
2 312 296 310 311 306 301 298 294 291 289 291 294 297 294 294 286 275 271 266 262 259 255 247 243 236 235 233 229 229 227 232 239 249 260 251 252 231 218 232 237 241 245
285 283 303 313 303 297 296 292 293 293 293 296 298 306 298 302 294 281 273 269 261 259 253 246 241 233 229 227 230 230 237 241 240 246 250 248 256 260 242 224 222 226 242
260 280 302 304 296 297 298 302 301 292 294 300 309 307 310 309 299 289 274 267 260 255 255 245 238 236 231 229 225 227 225 229 237 241 251 268 263 263 253 245 248 253 210
268 302 299 293 300 306 310 306 302 299 296 310 314 316 316 312 306 306 277 263 256 256 261 247 242 232 230 225 219 238 222 224 235 246 247 236 240 244 239 233 238 236 233
304 294 293 295 300 310 313 311 308 315 302 306 313 315 316 317 310 306 324 271 250 250 259 244 241 236 228 225 204 205 232 256 249 242 256 252 249 244 239 235 238 259 252
273 296 302 302 304 310 311 319 317 309 308 313 319 323 317 312 315 309 315 297 249 242 247 251 238 237 225 220 213 205 226 236 236 236 238 248 248 233 221 237 235 236 252
297 302 305 314 312 318 314 322 313 314 320 316 325 335 321 315 313 306 311 294 251 243 250 241 235 238 230 187 207 221 229 232 217 216 226 244 233 238 243 229 222 216 227
294 292 305 296 307 313 308 312 299 306 312 325 328 338 316 318 315 306 320 287 258 235 234 241 221 239 205 184 212 225 232 236 234 240 216 222 229 230 224 233 256 201 216
262 277 278 281 314 307 292 290 303 329 328 319 334 339 325 331 331 330 330 316 302 253 226 214 214 205 184 180 209 227 234 263 255 244 244 240 228 223 220 215 232 236 237
253 265 271 276 296 314 289 287 309 342 316 326 347 340 331 338 337 347 347 347 337 300 138 156 189 194 208 191 188 236 270 329 255 243 251 225 242 229 225 215 217 229 242
248 266 280 290 288 280 283 317 295 321 318 350 354 357 340 340 346 346 347 13 22 33 63 79 75 78 84 78 122 248 254 246 270 248 240 248 250 277 283 267 247 226 231
261 274 278 286 279 275 295 276 299 311 348 340 351 352 339 347 350 346 356 3 25 26 54 67 69 63 56 53 42 49 47 29 315 261 263 265 267 260 257 252 250 231 227
252 272 267 260 259 290 253 316 319 55 13 354 358 336 354 343 339 322 336 338 340 343 9 51 81 73 67 56 48 47 57 47 34 28 39 46 50 48 38 24 17 272 218
247 254 261 300 277 297 324 333 78 101 119 56 293 281 350 335 327 347 345 339 340 251 225 81 74 79 77 69 62 60 44 60 34 39 44 31 52 43 42 30 37 56 21
239 272 270 248 260 290 325 326 341 155 221 202 277 288 330 313 13 360 354 347 4 6 33 34 33 52 59 67 74 75 73 56 25 17 90 74 64 63 50 48 45 61 68
235 235 266 251 270 283 5 313 312 33 122 131 230 75 16 3 24 21 12 34 19 21 26 20 22 35 41 43 50 60 71 78 90 64 24 24 112 110 124 135 120 129 139
218 241 221 305 260 67 227 244 37 76 86 74 287 203 62 29 44 43 25 44 29 26 16 37 21 16 23 27 34 47 44 42 29 35 36 30 40 77 74 91 91 62 89
221 262 306 281 197 258 187 226 104 119 130 74 46 21 7 48 32 40 44 35 32 31 26 23 28 42 27 18 30 29 36 32 35 30 21 18 3 11 16 11 15 71 120
241 168 238 249 216 194 173 119 129 98 82 84 68 35 328 23 42 33 34 37 34 27 24 16 29 28 26 48 59 42 24 26 23 25 29 15 3 9 10 9 6 20 10
313 313 218 311 118 148 112 94 81 94 96 80 81 86 326 31 25 29 29 28 25 27 31 25 22 30 24 32 23 10 31 32 35 22 9 2 8 8 17 5 357 345 349
352 335 339 52 102 138 137 120 114 83 74 57 43 32 32 29 28 16 21 20 17 21 18 19 24 24 20 26 30 31 25 11 3 6 350 350 345 4 333 335 334 331 329
327 288 220 113 98 115 114 112 101 51 33 30 29 23 24 21 29 35 22 18 13 16 16 10 22 19 14 -0 23 38 27 5 349 356 340 342 337 343 332 330 327 333 315
207 206 159 123 121 115 115 78 67 58 55 29 21 16 18 16 21 20 14 12 8 2 8 3 16 3 8 20 40 35 28 1 3 335 338 324 327 321 320 321 333 322 314
128 110 101 87 77 73 66 71 67 54 46 34 29 23 19 19 20 15 12 12 360 358 -0 5 7 1 352 53 48 56 35 9 355 340 328 317 325 323 326 322 312 309 302